2017-008AH

Last updated on Tue Feb 28 2017 00:15:03 GMT+0000 (Coordinated Universal Time)

1 41979U 17008AH 17058.83110704 .00001553 00000-0 71912-4 0 9999 2 41979 97.5130 120.4467 0007712 211.9389 148.1370 15.21606792 1892
UTC large
Height (km)
Speed (km/s)
/
Latitude / Longitude
Inclination (degrees)
Orbital Period (minutes)
Azimuth
Elevation
Range (km)
Doppler Factor

Next 0 passes for location: London (51.5072 / 0.1276)

Sorry there are no passes over London.